ARIANE 42P DEB, 44508

Orbit data source: Space-Track

ARIANE 42P DEB, 44508 is space debris in LEO originally from a launch on Mon, 10 Aug 1992 UTC launched from the French Guiana (FRGUI). Debris objects in space refer to the collection of defunct objects orbiting the Earth. Examples of debris include non-operational satellites, rocket bodies, and fragments generated from explosions, collisions, or faulty payload assembly.

Loading next visibility...
Identifier
44508, 1992-052F
Orbit
LEO
Last TLE update
1 day ago
Origin
Manufacturer
ArianeGroup
Mission
Spacecraft
Bus & Motor
Unknown
Mass
Unknown
Launch date (UTC)
1992-08-10 (33 years ago)
Launch vehicle
Unknown
Launch site
French Guiana (FRGUI)
Object type
Payload
Rocket body
Debris
Shape & HBR
Unknown
Radar Cross Section
Small (<0.1 m²)

Expand to show TLE details & history

TLE from 1 day ago
0 ARIANE 42P DEB
1 44508U 92052F   25132.37910196  .00001261  00000-0  52816-2 0  9992
2 44508  66.0323 120.1950 0321587 101.7620 261.9651 12.71565407 52177
Epoch: 2025-05-12T09:05Z
Definitive object data (Epoch: 2025-05-12T09:05:54.409Z)
Latitude
-0.00003°
Longitude
113.32525°
Altitude
1,420.135 km
Speed
7.131 km/s
True Right ascension
08h 00m 46s
True Declination
0° 00' 00"
Sunlit
Object was in daylight at TLE epoch
Visualization TLE readout
Latitude
3.79255°
Longitude
112.75075°
Altitude
1,399.7 km
Speed
7.15 km/s
Apparent Right ascension
07h 58m 23s
Apparent Declination
-15° 42' 11"
Sunlit
Object is in daylight
Visualization observer readout
Local Sidereal Time
19:58:15
Azimuth
359.921° N
Elevation
-65.787°
Doppler factor
1
Orbital elements
Apogee altitude
1,623.441 km
Perigee altitude
1,124.835 km
Semi-major axis
7,752.275 km
Eccentricity
0.0321587
Inclination
66.0323°
RAAN
120.195°
Arg. of periapsis
101.762°
True anomaly
258.33897°
Mean anomaly
261.9651°
Eccentric anomaly
260.14971°
Mean motion
3.1798 °/min
BSTAR
0.0052816
Orbital period
113.21 mins
Loading maneuver chart data...
Loading SW <> Apogee altitude chart data...
Loading historical data...
Loading historical data...
Loading historical data...
Loading historical data...
Loading historical data...
Loading historical data...
Loading historical data...

ARIANE 42P DEB Visibility forecast

Observer location: undefined°, undefined°

Span
Click to sort rows by Start time (UTC) header in descending order
Start Az.
Max El. time (UTC)
Max El. Az.
Max El.
End time (UTC)
End Az.
9 mins2025-05-13 22:57:49.071Z143.536° SSE2025-05-13 23:02:49.071Z101.352° ESE18.724°2025-05-13 23:06:49.071Z66.251° ENE
13 mins2025-05-14 00:51:49.071Z214.928° SW2025-05-14 00:58:49.071Z332.449° NNW44.181°2025-05-14 01:04:49.071Z27.132° NE
8 mins2025-05-14 02:52:49.071Z290.145° WNW2025-05-14 02:55:49.071Z317.591° NNW17.936°2025-05-14 03:00:49.071Z3.711° NNE
12 mins2025-05-14 08:50:49.071Z343.584° N2025-05-14 08:56:49.071Z60.005° ENE35.513°2025-05-14 09:02:49.071Z122.424° SE
11 mins2025-05-14 10:47:49.071Z307.462° NW2025-05-14 10:52:49.071Z252.445° W29.945°2025-05-14 10:58:49.071Z191.111° SSW
|